Wind_Speed
33 33 34 34 35 35 36 36 36 37 37 37 37 37 36 36 36 36 37 36 36 36 36 36 36 37 39 40 41 46 52 55 55 54 54 53 52 50 48 46 46 45 46 46 44 44 43 43 42 42 41 40 40 38 37 35 33 32 29 27 23 22 24 25 23 18 15 13 10 9 11 11 11 12 11 11 11 10 11 12 13 15 16 18 21 24 27 29
32 32 32 33 34 35 35 36 36 36 37 38 38 38 38 38 38 38 38 38 38 38 38 38 38 38 40 41 42 45 50 55 57 56 56 55 54 52 50 48 47 47 47 47 46 45 45 44 44 44 43 42 42 40 38 37 35 34 32 28 27 26 27 27 24 21 18 15 12 11 12 12 11 12 12 12 11 9 10 11 12 13 15 17 19 21 24 27
31 31 31 31 31 32 34 35 36 36 37 37 38 39 40 40 40 39 40 40 40 40 40 40 40 40 41 43 44 45 48 53 57 58 58 57 56 54 52 51 50 48 47 47 48 48 48 47 47 46 45 45 44 42 40 39 36 34 33 30 28 29 29 28 26 24 21 18 15 14 14 13 12 13 11 8 9 10 11 10 10 13 14 16 17 19 22 25
35 34 33 32 31 31 31 32 34 35 36 37 38 39 40 41 42 42 42 42 42 42 43 42 42 42 42 44 45 47 48 51 56 59 60 59 58 56 55 53 52 50 49 49 50 50 50 49 48 47 47 46 45 44 42 41 38 35 36 34 30 30 30 30 28 26 24 21 18 16 15 13 13 12 10 10 11 11 10 9 10 12 14 15 16 18 20 23
39 38 38 37 36 34 33 33 33 33 34 35 37 39 40 41 43 44 44 44 44 44 45 44 44 45 45 45 46 48 49 50 54 58 61 61 60 59 57 56 54 53 51 50 51 51 51 51 50 49 48 47 46 46 44 43 41 37 37 34 31 32 32 31 29 27 25 22 19 18 16 14 12 11 12 15 13 10 10 11 12 13 14 14 15 16 18 20
37 38 38 39 39 38 38 37 36 35 34 33 34 37 39 41 43 44 45 46 47 47 47 47 47 47 47 47 47 49 50 51 53 56 60 62 62 61 60 59 57 55 53 52 52 52 52 52 52 50 49 47 46 46 46 45 43 40 37 34 33 35 35 33 31 29 27 24 21 19 17 15 13 12 14 16 14 12 13 14 14 14 14 14 14 15 17 19
32 33 34 35 36 37 38 39 39 39 38 36 35 35 37 40 43 44 46 48 49 50 49 49 49 49 49 49 49 50 51 52 53 55 59 62 63 63 63 61 59 57 56 55 53 52 53 53 53 52 51 49 48 47 47 46 45 44 42 40 38 37 35 34 33 30 28 26 23 21 19 17 15 15 16 17 15 15 16 17 16 15 15 14 14 14 16 17
31 31 31 31 32 34 35 37 38 40 40 40 38 37 37 38 40 43 46 48 50 51 52 52 52 51 51 51 52 51 51 53 54 55 57 60 63 65 65 63 62 60 59 57 55 53 53 53 53 53 52 51 50 49 49 48 47 47 46 43 41 40 37 35 34 31 29 27 24 23 21 19 17 16 17 18 19 19 19 18 17 17 16 15 14 14 15 16
33 33 32 32 33 34 35 36 37 39 40 41 41 40 40 40 40 41 44 47 50 52 54 55 54 54 54 54 54 53 53 55 55 56 58 59 62 65 66 65 64 63 61 59 57 55 54 54 54 54 53 53 53 52 52 51 49 49 49 45 42 42 40 37 35 32 30 28 26 25 22 20 20 17 18 22 23 21 21 20 18 17 16 15 14 14 15 15
35 35 36 36 37 37 37 37 38 39 40 40 41 42 43 43 43 42 42 45 48 52 55 56 57 57 56 56 55 55 56 56 56 58 59 59 61 64 66 67 66 65 64 62 60 58 56 55 54 54 54 55 56 55 54 54 53 52 50 49 45 43 41 38 36 33 31 29 26 24 23 23 22 19 20 23 23 21 20 19 18 17 16 16 14 14 14 14
37 38 39 39 39 39 40 40 41 42 41 41 42 43 44 45 46 45 44 44 46 50 54 57 58 59 59 59 57 57 58 58 58 59 60 61 62 63 65 67 68 67 66 65 63 60 58 57 56 56 56 56 56 57 57 57 55 54 52 51 49 46 43 40 37 35 32 29 26 24 24 24 23 21 22 23 22 20 18 16 16 17 17 15 14 14 13 13
39 40 40 41 42 43 44 45 46 46 45 44 44 45 46 47 48 48 48 47 47 48 51 56 59 60 61 61 60 60 61 60 60 60 61 62 63 63 64 66 68 68 68 67 65 63 61 60 59 58 56 56 57 58 58 58 56 55 54 52 50 48 45 42 39 36 33 31 28 27 26 24 24 24 24 24 23 20 17 17 18 17 17 16 14 13 12 12
41 42 43 44 46 47 49 50 51 50 50 49 48 48 49 49 49 50 50 50 49 49 50 53 58 61 62 62 63 63 62 63 63 62 63 63 64 65 65 65 67 69 69 68 67 66 65 64 62 60 59 59 58 57 59 59 58 57 55 53 51 48 46 44 41 38 35 33 31 30 27 25 25 25 24 22 20 20 21 20 19 18 18 17 14 12 12 11
44 45 47 48 50 51 53 54 55 54 54 54 54 54 53 53 52 52 53 53 52 51 51 52 55 59 62 64 65 65 65 65 65 65 65 65 65 66 66 66 66 68 69 69 69 69 68 68 65 64 64 61 58 60 61 60 59 58 56 54 51 49 47 45 43 40 36 34 33 31 28 26 27 25 21 19 18 19 21 21 19 19 19 18 15 12 11 10
48 49 50 52 53 54 55 56 56 56 57 58 58 58 58 57 56 56 55 55 55 54 53 53 54 56 61 65 66 67 67 67 67 68 67 66 67 67 67 67 67 67 68 70 71 71 71 70 68 68 66 63 62 63 61 60 59 58 56 54 52 51 50 48 45 42 39 37 35 33 31 28 28 24 20 21 20 17 19 19 19 21 20 19 17 13 11 10
50 51 52 53 54 55 56 57 57 57 58 59 60 60 60 59 59 59 58 57 57 57 56 55 55 55 57 62 67 69 69 69 69 70 69 69 68 68 68 68 69 69 69 70 71 72 72 71 71 70 67 66 67 65 61 59 58 57 55 54 54 53 52 50 47 44 42 40 36 33 33 31 28 24 22 24 21 18 20 21 20 22 22 21 18 15 12 10
51 52 52 53 53 54 55 55 56 56 57 59 59 60 60 60 61 61 62 61 59 59 59 58 57 57 57 60 66 69 70 71 72 71 71 71 71 70 70 70 70 70 70 70 71 72 73 73 72 71 70 70 69 65 62 59 57 56 56 55 55 55 54 52 49 46 44 42 38 35 35 32 26 23 22 19 14 18 23 22 21 23 23 22 20 17 14 11
52 52 52 51 51 51 51 52 53 54 54 55 56 57 58 59 60 62 63 64 63 62 61 60 59 59 58 59 62 66 71 73 73 73 73 73 73 73 72 71 71 72 72 72 72 72 73 73 73 73 72 72 70 66 64 61 60 59 58 57 56 55 55 53 50 48 46 44 41 39 37 32 28 23 18 14 15 20 25 22 21 23 23 22 21 19 16 13
52 52 51 49 48 48 48 49 49 50 50 50 52 53 54 56 58 60 62 64 65 64 62 62 63 61 60 61 62 65 70 74 74 74 75 75 75 75 74 73 73 73 73 73 73 72 73 73 73 73 72 71 70 69 68 66 64 62 60 58 57 56 56 54 51 49 46 45 42 41 39 35 32 24 18 20 23 27 28 25 22 20 22 23 22 21 19 16
52 51 50 48 46 45 45 46 45 45 45 45 47 49 50 52 54 57 60 62 64 65 64 65 65 63 62 63 64 66 69 72 74 75 76 76 77 77 77 76 75 74 74 74 74 74 73 73 73 72 72 72 72 72 72 69 65 63 61 60 58 57 56 54 52 49 46 45 43 42 40 39 36 27 23 26 27 28 29 28 26 25 24 24 23 22 20 18
52 51 49 47 45 43 43 42 41 40 40 41 42 45 47 49 51 53 56 59 62 63 65 66 65 65 65 66 67 68 67 70 74 76 77 78 78 79 80 79 78 76 76 75 75 75 74 73 73 73 74 73 73 74 73 68 66 66 64 63 61 59 58 55 53 50 47 46 45 45 42 42 40 33 31 31 30 30 30 28 28 29 27 23 22 23 22 20
51 50 48 45 43 41 40 39 38 37 36 37 38 40 43 45 48 50 53 56 58 61 63 65 66 66 67 69 69 69 69 69 72 76 77 79 80 80 81 81 80 79 77 76 76 76 76 74 74 74 74 73 72 73 70 68 69 70 69 66 64 63 60 56 54 51 49 49 49 48 47 47 46 42 40 37 35 34 32 30 29 28 25 21 22 25 24 21
50 49 46 43 41 39 37 36 35 35 34 35 36 37 39 41 43 46 49 52 55 58 61 63 66 66 68 71 70 70 72 72 71 74 78 80 80 81 82 82 83 82 79 77 77 78 78 77 77 76 75 73 72 71 69 70 73 73 71 69 68 66 62 59 58 54 52 51 50 49 49 50 51 50 48 45 42 38 35 33 28 24 22 21 22 24 23 21
50 48 45 41 39 37 35 35 34 34 34 35 35 36 38 39 41 43 46 48 51 54 58 61 64 66 68 70 72 74 75 74 73 74 77 80 80 81 82 83 84 84 82 79 79 80 80 81 80 78 75 73 72 71 70 72 74 73 72 71 69 67 65 63 60 56 54 53 52 51 50 50 51 52 52 50 46 42 38 34 30 26 23 20 20 21 22 22
49 46 43 40 38 36 34 33 33 34 35 36 37 38 39 40 42 43 45 48 49 52 55 58 61 65 67 70 73 75 74 74 75 74 76 79 80 81 83 84 85 85 85 83 82 82 82 83 80 77 75 75 75 73 72 72 72 72 72 71 70 69 68 65 61 58 58 56 56 54 52 52 52 51 51 49 47 43 40 38 35 32 27 21 20 24 26 24
48 45 42 39 37 34 32 32 32 33 35 37 39 40 42 43 44 46 48 51 52 52 54 57 60 64 67 70 72 73 74 76 77 76 77 78 80 81 83 84 86 86 86 86 86 84 83 82 79 78 78 77 76 74 72 72 72 72 71 71 72 71 68 64 63 63 62 61 60 57 56 56 54 52 50 49 46 43 42 40 37 35 30 24 21 27 29 25
47 44 41 38 36 33 32 31 31 32 33 35 37 39 41 43 46 49 52 56 56 56 58 59 61 64 67 69 70 73 78 78 77 79 79 78 79 81 83 85 87 87 87 88 88 86 84 80 79 81 82 79 77 75 74 73 73 73 73 72 72 70 67 66 67 66 65 65 63 60 60 58 55 53 52 49 46 44 43 40 38 38 35 29 27 32 33 28
46 43 40 38 35 33 31 30 31 31 32 33 35 38 40 43 47 49 54 59 59 59 62 64 65 67 68 69 72 77 78 77 78 81 80 79 79 81 84 86 87 87 87 88 89 89 86 81 81 85 84 81 79 78 76 75 75 75 71 69 70 67 66 68 69 69 69 67 64 63 62 60 57 55 53 51 49 47 46 42 40 40 37 34 33 35 35 31
45 42 40 37 35 32 31 30 30 30 32 34 37 40 44 47 49 52 57 60 60 61 64 66 68 70 70 72 75 77 76 77 80 81 80 81 80 81 83 84 85 86 86 89 92 93 89 86 86 86 85 84 82 80 78 76 76 75 70 68 68 66 66 68 68 70 69 66 66 66 64 62 60 58 55 55 54 51 49 46 42 39 36 35 35 35 35 31
44 41 39 37 35 32 30 30 30 32 34 38 41 45 48 50 52 55 57 57 57 59 62 66 69 70 71 74 76 76 76 78 80 79 81 83 82 82 82 83 85 84 85 91 94 93 91 89 88 86 85 85 84 82 80 79 79 75 70 68 67 65 68 68 67 70 68 66 67 67 66 65 63 60 56 55 56 55 52 49 46 43 39 36 35 35 34 30
43 41 38 37 35 32 31 31 32 34 38 41 45 48 50 50 51 54 54 52 54 56 59 63 66 68 71 74 75 76 76 77 77 78 82 83 83 83 82 83 85 83 85 92 93 90 89 90 89 87 84 84 86 85 83 82 80 73 70 71 69 67 69 68 68 70 66 65 68 68 67 67 66 63 59 56 55 55 55 54 51 49 45 40 37 37 36 33
41 40 38 36 34 32 31 32 34 37 40 44 47 48 48 47 47 49 49 49 51 53 56 60 63 66 69 70 72 74 75 75 77 79 81 82 84 84 83 84 85 85 87 91 92 90 91 95 94 90 86 86 87 85 83 83 79 74 74 75 72 70 69 67 67 67 63 64 68 67 67 69 67 64 62 61 59 56 56 55 54 52 48 44 41 39 38 37
40 39 38 36 33 31 32 34 36 39 43 45 46 45 44 43 42 42 43 45 47 50 54 58 60 63 65 67 69 71 72 75 77 79 80 81 82 81 81 82 83 84 87 89 91 92 94 97 96 93 90 88 87 87 88 87 83 79 80 79 75 72 69 67 67 64 62 64 68 68 69 69 65 64 64 64 63 61 59 57 56 54 51 48 45 40 39 38
39 38 37 35 32 32 33 36 38 42 44 45 45 42 39 37 37 36 38 40 42 46 51 54 57 60 62 64 67 69 72 73 75 76 77 78 79 80 81 82 83 85 86 88 89 91 95 98 96 96 95 91 89 90 92 90 85 82 83 81 77 74 71 69 67 64 63 66 69 70 68 65 64 65 65 64 64 63 61 59 57 56 54 51 49 45 43 40
39 38 36 34 33 33 35 38 41 44 45 44 42 38 34 32 31 31 32 34 36 41 46 49 52 56 59 62 66 68 70 72 73 74 76 78 81 83 84 84 85 86 87 89 89 89 95 99 98 97 97 93 92 92 91 89 86 85 85 82 80 77 75 73 69 67 67 69 70 69 65 62 63 64 65 65 65 64 62 61 59 57 56 54 52 50 47 44
38 37 36 34 34 35 37 41 44 46 46 45 40 34 29 27 26 26 27 29 33 37 41 44 49 52 56 61 65 67 68 70 72 74 76 78 80 80 80 81 83 84 86 88 89 90 95 99 98 98 98 97 95 92 90 91 91 90 87 84 83 81 79 76 72 71 72 73 72 69 63 61 63 65 66 66 65 64 62 61 59 58 57 55 54 52 49 47
37 36 34 34 35 36 39 43 46 47 47 44 38 32 26 23 22 22 23 26 29 33 37 42 46 50 54 58 62 63 66 69 71 73 75 77 78 78 79 82 84 85 86 87 88 92 96 97 97 99 99 98 98 95 92 94 95 93 91 90 88 83 79 76 74 73 73 73 72 69 65 64 66 66 66 65 64 63 61 60 59 58 57 56 55 53 51 49
35 34 34 34 35 38 41 45 47 48 47 42 35 29 24 20 18 18 19 22 26 30 36 41 44 48 51 55 58 61 64 67 69 72 75 76 77 78 80 83 84 85 87 87 89 92 94 95 97 100 99 100 101 98 96 96 96 95 94 92 88 83 80 77 76 74 72 71 71 68 66 69 69 67 65 64 63 61 60 59 58 57 56 55 55 54 52 51
34 33 33 34 36 39 43 47 49 50 48 43 34 26 21 18 16 15 16 18 23 28 33 36 41 45 49 53 56 59 62 65 68 71 74 75 76 78 80 82 83 85 86 87 89 91 92 93 97 101 101 102 103 101 100 100 98 97 96 93 89 86 84 82 81 78 75 74 73 68 68 72 70 67 64 62 62 61 61 60 59 57 56 55 54 54 53 52
32 32 33 34 37 40 44 48 50 50 47 41 33 26 20 16 14 12 13 16 21 26 30 33 38 43 47 50 53 56 60 64 67 71 74 74 76 78 79 81 83 85 86 87 88 89 90 92 96 100 102 103 105 105 105 103 100 97 97 97 93 90 88 86 84 82 80 80 78 74 74 74 70 66 65 64 64 63 62 61 60 59 57 55 55 54 53 52
32 32 33 35 38 42 46 50 51 50 46 39 31 25 19 15 12 10 11 14 18 23 28 32 36 40 44 47 50 53 58 62 65 69 71 72 74 76 78 81 83 84 86 87 88 89 91 93 96 99 103 106 108 107 105 103 98 95 97 98 97 95 93 90 86 84 83 83 82 80 79 76 71 68 66 67 67 65 64 63 61 60 58 57 56 55 54 53
31 31 33 35 39 43 48 51 52 51 47 39 31 24 19 15 12 9 9 12 16 21 27 32 35 38 41 44 47 50 54 58 62 66 68 70 72 75 77 80 82 84 85 87 88 88 90 93 97 101 106 109 107 105 104 103 101 98 99 99 98 97 95 92 90 90 88 85 83 81 80 77 73 70 68 68 68 67 66 64 62 61 60 58 57 56 55 54
31 31 32 35 40 44 48 52 53 52 48 39 31 25 19 15 11 9 8 11 14 19 24 30 35 38 39 41 44 47 51 54 58 62 66 68 71 73 76 78 80 82 84 85 86 87 90 94 97 101 104 105 105 105 106 105 104 103 102 100 99 98 97 94 93 93 91 88 86 84 81 77 74 71 70 70 70 69 68 67 65 64 62 60 59 58 57 55
30 30 32 36 40 44 48 52 53 52 48 40 32 25 20 15 12 8 7 9 13 18 22 27 33 37 40 41 42 45 48 51 54 58 62 65 68 71 73 76 78 80 82 83 84 87 90 93 96 98 100 102 105 107 107 106 106 107 105 100 98 99 99 97 95 92 90 89 89 88 85 80 78 76 74 73 73 71 70 69 68 67 65 63 61 60 59 57
29 30 33 36 40 44 48 51 52 52 47 41 33 26 20 15 12 9 7 8 12 16 21 25 30 35 39 42 44 45 46 48 51 53 56 60 63 67 70 73 75 78 80 82 84 87 89 91 93 96 100 104 107 109 109 109 109 109 105 101 99 99 100 99 98 96 94 92 92 91 88 84 81 80 78 77 75 74 73 71 70 69 68 66 65 63 61 59
29 30 34 37 40 44 48 50 52 51 46 40 34 28 22 16 12 9 7 7 10 15 20 24 28 32 36 40 43 45 47 48 50 52 53 55 58 62 66 69 72 75 77 80 83 85 87 89 92 95 99 104 107 109 110 110 110 108 105 103 102 101 101 101 101 99 97 96 95 95 91 85 82 80 79 78 77 76 75 74 73 71 70 69 67 66 64 62
29 31 35 38 40 44 47 50 51 50 44 37 33 29 24 18 12 9 7 7 10 14 18 22 27 30 34 37 40 43 46 49 50 52 53 54 56 58 62 65 68 71 74 77 80 82 85 88 91 94 97 100 103 106 107 108 107 106 105 105 104 102 102 103 102 101 100 98 97 96 93 88 85 84 82 81 80 79 78 76 75 74 73 71 70 68 67 65
30 32 35 38 40 43 47 49 51 49 43 35 31 28 26 21 14 9 7 6 9 13 16 21 25 29 33 36 39 41 44 46 48 50 52 54 55 57 60 62 65 68 71 74 76 79 82 85 88 91 94 96 99 102 105 106 106 105 106 107 106 105 104 104 103 102 101 100 99 98 95 92 91 88 86 85 83 82 80 79 78 77 75 74 72 71 70 68
30 32 36 38 40 43 47 49 50 48 42 35 30 27 25 22 17 12 8 6 8 12 16 19 24 27 31 35 37 40 42 43 45 47 49 52 54 57 59 61 63 66 68 70 72 75 79 82 84 87 90 93 96 100 103 105 106 106 107 108 108 107 106 105 104 102 102 103 103 101 100 97 94 91 88 88 87 85 83 82 80 79 77 76 75 73 72 71
30 33 36 38 40 44 47 49 50 47 41 34 30 26 23 21 19 15 10 7 7 10 15 19 22 26 30 33 36 39 41 43 45 47 48 50 52 55 57 59 62 64 66 68 70 72 75 77 80 84 87 90 94 98 101 104 106 107 108 108 109 109 108 106 105 104 103 105 106 105 103 100 96 93 92 91 90 88 86 84 82 80 79 77 76 75 74 74
31 33 36 38 40 44 47 49 49 46 40 34 30 27 23 20 18 16 13 10 7 9 13 18 21 25 28 32 35 38 41 43 45 47 49 50 52 53 55 57 60 62 64 66 67 70 72 73 75 80 83 87 91 96 99 103 106 107 108 109 110 110 110 109 107 105 105 107 107 106 105 103 99 97 96 94 93 91 89 87 85 83 81 80 78 77 76 76
31 33 37 38 40 44 47 48 49 45 39 34 31 27 23 20 18 16 14 12 9 8 11 15 20 24 27 30 34 37 40 43 45 47 49 50 52 53 54 56 58 60 62 64 66 69 69 70 73 77 79 83 88 92 96 101 105 107 109 109 110 111 111 110 108 107 106 108 109 108 107 105 102 101 100 97 95 93 91 89 88 87 85 83 82 80 79 78
Wind_Direction
278 276 274 272 271 269 266 263 260 257 255 252 250 247 245 243 241 240 238 235 233 231 229 229 229 226 223 220 217 215 214 213 214 214 214 214 213 211 209 209 209 210 211 211 210 208 206 205 204 204 204 203 201 200 198 197 195 195 200 201 205 209 210 216 216 223 236 237 240 246 253 255 254 254 258 276 293 308 322 331 338 346 352 359 5 9 14 18
280 279 277 275 273 271 269 266 263 260 257 253 251 248 245 242 239 238 236 235 233 230 228 227 228 227 224 222 219 217 215 214 214 215 215 216 215 213 211 211 210 210 211 211 211 210 209 207 206 205 205 205 204 203 201 200 198 197 201 202 209 216 213 216 215 212 222 234 238 241 247 252 253 257 265 275 281 297 311 320 330 338 347 354 0 6 12 17
285 283 280 278 275 273 272 269 266 263 259 256 253 249 247 243 239 236 234 233 232 230 228 227 226 226 225 223 221 218 217 216 215 215 216 216 217 215 213 213 212 211 211 211 211 211 210 209 208 207 207 207 206 205 204 202 200 200 204 205 209 217 216 218 218 214 222 232 235 241 248 251 254 260 267 272 283 299 303 307 323 332 341 349 355 2 8 15
289 288 285 282 279 276 274 271 269 265 262 258 255 252 248 245 242 238 234 232 231 230 229 226 225 225 225 224 222 221 218 217 217 216 216 217 217 217 216 214 214 212 212 212 212 212 211 211 210 209 208 208 207 206 206 204 200 203 208 208 211 216 217 219 221 220 223 227 231 240 246 251 256 260 266 272 287 298 293 299 319 328 335 342 349 357 5 13
288 287 286 285 283 280 277 274 271 267 264 260 257 254 250 247 243 240 237 233 230 229 228 227 225 224 225 224 222 222 220 218 218 218 217 217 217 218 217 216 215 213 213 213 213 213 212 213 212 211 211 210 209 208 208 207 203 206 210 211 216 219 218 220 222 224 226 227 228 237 245 250 254 261 270 272 279 281 281 301 314 321 328 334 343 352 0 10
286 285 284 284 283 283 281 278 275 271 267 262 259 255 253 249 245 242 239 236 232 229 228 227 226 224 224 224 223 222 221 220 219 219 219 218 217 218 218 218 217 215 214 214 214 214 213 214 214 213 213 212 211 211 211 211 207 207 209 213 218 219 219 219 221 225 228 230 229 235 244 247 253 260 266 271 274 271 279 299 306 311 319 327 337 346 354 5
288 286 285 285 284 284 283 281 279 276 272 267 261 257 253 251 247 243 240 238 235 232 228 226 226 225 224 223 223 222 221 222 221 220 220 219 219 218 218 218 218 217 216 215 214 215 215 215 215 214 215 214 214 214 214 214 211 210 212 215 218 217 218 217 220 224 228 232 231 235 240 242 253 262 265 271 271 270 280 292 296 301 309 319 330 340 347 357
288 287 286 286 287 287 285 283 281 279 277 273 268 262 256 252 248 245 241 239 236 234 231 228 225 224 224 223 223 222 221 222 222 221 220 220 220 219 219 219 218 218 218 217 215 216 216 216 216 216 216 216 216 216 217 216 215 214 215 217 219 219 219 219 221 224 227 231 232 235 241 244 250 257 264 269 269 272 279 285 289 294 301 310 322 332 340 348
288 286 285 286 286 286 286 284 282 279 278 276 273 269 263 257 251 246 243 240 237 235 233 231 227 224 223 223 222 221 222 222 221 222 222 220 221 221 220 219 219 219 219 218 217 216 217 217 217 217 217 218 218 218 219 218 217 218 218 217 219 220 220 220 222 225 228 232 234 239 245 248 249 252 260 263 266 272 276 279 283 289 296 304 314 324 332 340
287 285 284 284 284 284 283 282 281 278 276 275 274 272 269 264 257 250 244 240 238 236 234 232 230 226 224 223 222 221 222 222 221 222 222 222 221 221 221 220 219 219 219 219 218 217 217 218 217 217 218 219 219 219 220 220 218 220 220 218 219 220 219 220 223 226 229 231 237 244 248 250 252 253 256 260 265 272 274 274 276 284 292 300 309 318 325 333
288 287 286 286 286 285 284 282 279 277 274 272 271 269 268 266 263 257 248 242 238 236 235 233 231 229 226 223 221 221 222 221 221 221 222 222 222 221 221 221 220 220 219 219 219 219 218 218 218 218 219 220 220 221 221 221 220 219 221 221 221 222 222 223 225 226 230 233 235 241 244 249 255 256 254 257 263 270 269 268 275 283 289 295 304 313 320 328
290 289 288 288 287 287 285 283 281 278 275 272 269 266 264 263 262 260 255 247 240 236 235 233 231 230 227 224 222 221 221 221 221 221 221 222 222 222 222 221 221 220 220 219 219 219 219 219 219 219 220 220 221 222 223 222 221 221 222 223 223 224 224 225 226 227 230 232 231 234 238 245 252 255 255 255 256 257 255 263 276 281 285 291 299 307 316 323
291 290 289 288 287 286 284 283 281 278 276 273 269 265 262 260 258 257 256 252 246 238 234 233 232 230 228 226 224 222 221 221 221 220 221 221 222 222 222 222 222 221 221 220 219 219 219 219 219 220 220 221 220 222 223 223 222 222 222 223 224 225 226 227 228 228 229 231 231 233 236 240 244 249 253 250 248 250 253 261 270 274 280 286 293 302 311 318
292 290 289 288 287 285 283 281 280 278 275 273 270 266 262 258 256 254 253 253 250 244 237 233 231 230 229 227 225 223 221 221 221 220 220 220 221 222 222 222 222 222 221 220 220 220 219 220 219 220 221 221 221 222 223 222 223 223 224 225 226 227 228 228 229 229 229 230 231 232 234 237 243 250 253 250 253 257 257 259 263 269 275 280 287 295 305 312
293 292 291 290 288 285 283 281 279 277 274 271 269 266 262 258 254 251 250 250 249 247 242 236 232 229 229 227 226 224 222 221 221 220 220 220 220 221 221 222 222 222 221 221 220 220 220 220 220 221 221 221 222 222 222 222 223 224 225 226 227 228 229 229 229 229 228 229 229 232 235 236 241 246 248 255 260 254 250 256 262 269 273 276 282 287 295 305
296 294 293 291 288 286 283 281 279 276 273 270 267 264 261 257 253 249 247 246 246 246 244 239 234 230 228 227 226 225 223 222 221 220 220 220 220 220 221 221 221 222 222 221 221 220 220 220 221 221 221 222 223 223 222 222 223 224 225 226 227 228 229 228 229 228 228 229 228 229 233 234 237 240 245 253 254 240 241 255 265 271 273 273 277 280 286 293
298 297 295 293 289 286 283 280 278 275 272 269 266 262 259 256 252 248 245 243 242 243 243 241 237 232 228 227 226 225 224 222 221 220 220 220 220 220 220 220 221 221 222 222 222 221 221 220 221 221 222 223 224 224 223 223 223 223 224 225 226 228 228 228 228 228 228 229 227 227 230 232 233 235 242 244 235 233 245 256 268 274 274 272 274 276 279 284
302 300 298 295 292 287 283 280 277 274 271 267 264 261 257 254 251 248 244 242 241 240 240 240 239 235 230 228 227 225 224 223 222 221 220 220 220 220 219 219 220 220 221 222 222 222 222 221 221 221 222 223 224 224 224 223 222 222 223 224 225 226 227 227 227 227 227 228 228 228 229 229 228 226 231 225 210 230 247 259 269 272 272 272 273 276 277 279
305 304 302 299 295 290 285 281 278 274 270 267 263 259 256 252 249 247 244 242 241 239 238 238 238 236 233 230 228 225 224 223 222 221 220 220 220 220 220 219 219 220 220 221 222 222 222 222 221 221 222 223 224 224 224 223 222 223 223 223 224 226 226 227 226 226 227 227 227 228 227 226 226 220 215 217 218 232 246 255 259 260 265 272 275 276 277 277
308 308 307 303 298 292 288 283 279 275 270 266 263 259 255 252 249 246 244 242 241 239 237 236 236 235 234 233 230 227 224 223 221 221 221 220 220 220 220 220 219 219 219 220 221 222 222 222 222 221 221 222 223 223 223 223 223 224 224 224 225 225 226 226 225 225 225 226 225 226 225 225 225 217 212 218 221 228 240 249 252 252 259 271 275 276 277 278
311 311 310 306 301 296 290 285 280 275 271 267 263 259 255 251 248 246 243 241 240 239 238 236 235 234 234 234 232 229 225 222 221 220 220 220 220 220 220 220 219 219 219 219 220 221 222 222 222 222 222 222 222 223 224 223 224 224 224 224 225 225 225 225 225 223 222 223 222 222 222 222 220 214 213 220 222 225 235 241 246 253 259 265 270 274 278 278
313 313 313 309 304 298 292 285 280 275 272 268 263 259 255 251 248 246 243 241 240 239 238 237 235 234 234 234 232 230 227 224 221 220 220 220 220 220 219 219 219 219 218 218 219 220 221 221 222 222 222 222 223 224 224 224 224 224 224 224 224 225 225 225 225 223 222 222 222 221 221 221 220 215 216 223 227 230 233 234 239 250 255 255 263 273 276 275
315 315 314 311 305 299 292 285 279 276 272 268 264 259 255 252 249 246 244 242 240 239 238 237 236 234 233 233 232 230 229 226 222 220 220 219 219 220 220 220 220 219 218 218 218 219 220 220 221 222 222 222 223 223 222 223 224 224 224 224 224 224 224 224 224 222 222 222 223 223 222 222 222 221 221 225 230 231 232 234 235 237 242 250 261 268 268 268
317 317 316 312 306 298 290 283 278 273 269 264 261 257 255 252 248 246 244 242 240 238 238 237 236 235 234 233 232 231 229 227 225 222 220 219 218 219 220 220 220 219 218 218 218 219 219 219 220 221 221 222 222 222 221 223 224 224 225 225 225 225 225 225 224 223 223 223 222 222 222 223 224 225 226 227 230 232 234 235 231 228 233 242 246 246 250 259
319 319 316 312 305 297 288 282 276 271 266 261 256 253 250 249 247 245 243 242 239 238 236 235 235 234 234 233 232 231 229 228 227 225 222 219 218 218 219 220 220 219 218 218 218 218 219 219 220 221 221 221 222 222 222 223 225 225 225 225 225 225 225 226 225 225 225 224 223 222 222 223 223 224 227 228 230 232 234 234 233 232 233 235 234 229 237 254
320 319 316 311 305 297 288 281 275 270 265 261 257 254 251 248 247 245 244 242 239 237 236 234 234 233 232 232 231 231 230 228 227 226 224 220 217 217 218 219 220 219 219 218 218 218 219 219 219 219 220 221 222 222 221 223 224 224 224 224 225 225 225 226 225 225 225 225 224 223 222 223 223 224 225 227 229 231 233 234 234 233 230 229 232 230 237 254
320 319 316 311 306 298 289 281 275 271 267 264 261 259 256 254 251 249 247 245 240 238 237 235 234 233 232 231 230 229 228 226 226 227 226 222 219 218 217 218 219 219 219 219 219 219 219 218 218 219 220 220 221 221 221 222 223 224 224 224 225 225 225 225 225 225 225 226 225 225 225 225 225 225 226 228 228 229 232 233 234 234 229 225 229 236 243 253
321 319 316 312 307 299 291 284 279 275 272 270 269 267 265 262 259 256 253 249 243 240 239 236 234 233 232 231 230 229 228 226 226 227 226 224 220 218 217 217 218 218 218 219 219 219 218 217 217 219 219 219 220 220 220 221 223 224 224 225 225 225 224 225 225 225 225 226 226 226 227 227 226 226 227 228 228 229 230 231 232 233 230 225 225 236 245 247
321 320 316 313 308 300 293 287 284 282 280 279 278 276 273 270 266 262 258 253 246 242 240 238 236 235 233 232 232 231 230 228 227 226 226 226 223 220 218 217 217 217 218 220 219 218 217 216 217 218 218 218 219 219 220 221 223 224 223 223 225 224 224 225 225 226 226 226 227 227 228 227 227 227 228 229 229 228 229 229 228 229 230 228 228 235 241 241
321 320 317 313 308 302 295 292 290 288 286 285 283 281 278 274 270 265 260 255 248 244 241 239 237 235 234 233 233 232 231 230 229 227 227 227 225 222 219 217 217 216 217 220 220 218 217 217 217 217 217 218 218 218 219 220 222 222 221 223 223 222 224 224 224 226 226 226 227 228 228 228 227 227 228 230 230 228 228 229 229 230 230 229 230 233 235 233
321 320 317 314 309 304 299 297 295 292 290 289 288 285 281 277 271 266 261 255 250 245 241 238 236 235 233 232 232 231 230 230 230 229 229 228 227 224 220 218 217 215 217 220 220 219 218 218 218 218 217 218 219 219 219 221 222 221 221 222 221 221 223 224 225 226 226 226 228 228 229 229 228 227 227 229 232 231 230 230 232 233 232 230 228 229 231 232
321 319 317 314 310 306 303 301 299 297 296 295 293 290 285 279 272 266 260 254 248 244 240 236 234 233 232 231 230 230 229 228 228 228 228 228 228 226 222 219 216 214 216 218 218 217 218 218 217 217 217 217 218 219 219 221 221 219 220 221 220 220 223 224 225 226 225 226 228 227 228 229 228 228 228 229 231 232 231 231 232 233 233 230 227 229 233 235
321 319 317 315 312 309 307 305 303 303 303 302 299 294 288 281 273 265 258 251 245 241 237 234 232 231 230 229 228 228 227 227 226 226 226 227 227 227 225 222 219 216 217 217 216 216 217 218 217 216 216 216 217 218 218 219 218 217 220 221 220 220 221 222 224 225 223 225 227 227 228 229 229 229 229 230 231 232 233 233 233 233 233 232 230 230 233 234
321 319 317 316 315 313 311 309 309 310 310 309 305 300 293 284 274 265 256 249 243 238 235 232 230 229 227 227 226 225 225 224 224 224 225 225 225 225 224 223 221 219 218 217 216 216 217 218 217 216 216 215 216 217 218 219 218 218 220 221 220 219 219 220 221 221 221 223 226 227 227 229 229 229 230 230 232 233 234 234 234 234 234 233 232 231 232 234
321 319 319 319 319 317 316 315 316 317 317 315 312 306 297 286 274 264 255 248 240 236 232 229 227 226 225 225 224 224 223 223 222 222 222 222 222 221 221 220 220 219 217 216 215 215 217 218 216 216 216 216 216 217 217 218 218 219 220 221 220 219 219 219 219 219 220 222 225 227 226 226 228 229 230 231 231 232 233 234 234 235 235 234 233 232 233 234
321 321 322 323 322 321 321 321 322 323 324 322 318 311 301 288 275 264 253 244 237 232 229 225 223 221 221 222 221 221 221 221 221 221 220 221 220 220 220 220 220 219 218 216 214 214 216 217 216 216 215 215 216 216 217 217 217 218 219 220 220 220 219 219 219 219 221 223 225 226 224 224 227 228 229 230 232 232 233 234 234 235 235 235 235 234 234 234
322 323 325 325 325 325 326 326 327 329 329 328 324 317 306 292 278 264 252 242 234 228 224 222 219 217 218 219 219 219 219 220 220 220 220 220 219 218 218 218 218 218 218 217 215 215 215 215 215 216 215 215 216 216 216 217 217 217 218 218 219 219 220 220 220 221 223 225 227 226 224 224 225 227 228 230 231 232 233 234 234 234 235 235 235 235 234 233
324 327 328 327 328 329 329 330 332 333 333 333 328 320 309 297 281 266 251 240 232 225 222 219 217 214 215 216 216 216 217 218 218 219 219 219 217 216 216 216 216 216 217 216 216 216 215 214 214 215 215 215 216 215 216 217 217 217 218 219 219 219 219 220 220 221 223 225 226 226 225 226 226 226 228 229 231 231 232 232 233 233 234 234 235 234 234 233
327 330 330 330 331 332 333 334 336 337 338 336 332 325 315 303 289 270 253 239 230 224 221 218 216 214 213 214 213 213 214 215 215 217 217 217 216 216 216 215 215 216 216 216 216 215 214 214 214 214 214 215 216 215 216 216 216 216 217 218 218 218 219 219 219 219 220 222 223 222 223 226 226 226 227 229 230 230 231 231 232 231 232 232 233 234 233 233
330 332 331 333 335 335 336 337 339 340 341 339 335 330 322 310 296 276 255 240 230 223 219 216 215 214 213 213 212 211 212 213 214 215 216 215 215 215 215 215 215 215 215 216 216 215 214 213 214 214 214 215 216 215 215 216 216 216 216 217 216 217 218 218 219 220 219 220 221 219 221 224 225 225 226 226 227 228 229 230 230 230 230 230 231 232 232 232
333 333 333 336 337 337 338 340 341 342 343 342 340 335 328 319 304 281 257 241 230 223 217 213 212 212 212 212 211 211 212 212 213 215 215 214 214 214 214 214 214 215 215 215 215 215 214 213 213 213 213 215 216 215 216 217 217 217 218 218 217 216 217 217 218 220 221 222 223 222 222 223 223 223 224 225 227 227 228 229 229 229 229 229 229 230 230 231
334 334 336 338 339 339 341 342 343 344 345 346 344 340 334 327 313 288 259 241 230 223 218 213 209 209 210 211 210 209 211 212 213 214 214 214 214 214 214 214 214 215 215 216 215 215 214 213 213 213 213 214 215 215 216 217 217 217 218 219 218 218 218 217 217 218 219 221 224 225 225 225 224 223 223 225 227 227 228 228 228 229 229 229 229 230 230 230
333 335 338 340 340 341 342 344 345 345 346 347 348 345 340 333 323 300 266 241 229 223 220 215 210 207 207 208 208 208 210 212 213 214 213 213 213 214 214 214 215 215 216 216 216 216 215 214 214 214 214 214 214 215 216 216 216 217 217 218 218 219 219 218 219 219 219 220 222 223 224 225 225 224 223 225 226 226 227 228 228 228 229 229 229 230 230 230
333 336 340 341 341 342 344 345 346 346 347 348 349 349 344 338 331 311 276 246 230 221 218 217 214 208 205 204 205 207 209 210 212 213 214 213 213 213 213 214 215 215 216 216 216 216 216 216 215 215 215 214 214 215 216 216 217 217 218 217 218 219 219 219 220 221 221 222 223 223 223 222 222 223 223 224 226 227 227 228 228 228 229 229 229 229 230 230
335 338 340 340 341 343 345 346 347 348 347 347 348 351 349 344 336 322 289 254 236 223 216 215 215 213 209 205 204 205 207 209 211 212 213 214 214 214 213 214 214 215 216 216 216 216 217 217 216 215 215 214 214 215 215 216 216 217 217 217 218 219 219 219 220 220 220 221 222 224 224 222 223 223 223 224 226 227 228 228 229 229 229 229 229 229 229 230
336 338 340 340 341 343 346 347 348 349 348 346 346 349 351 348 341 331 303 259 240 229 220 215 214 214 212 209 207 205 205 207 209 210 211 212 213 214 214 214 214 215 215 216 217 217 217 217 217 216 216 215 214 215 216 216 217 217 217 217 218 218 219 220 220 220 220 221 222 223 224 222 223 224 225 226 227 228 229 229 229 230 229 230 230 230 230 230
337 338 340 341 342 344 346 348 349 350 349 347 346 346 348 349 345 336 312 270 242 232 224 218 214 213 212 212 210 209 208 208 209 209 209 210 211 212 213 214 214 215 215 216 217 217 218 218 218 217 217 216 216 216 216 217 218 218 218 218 218 219 220 220 220 220 221 222 223 224 223 222 222 223 224 225 226 228 229 230 230 230 230 230 230 230 231 231
337 339 340 341 343 345 347 348 349 350 350 349 347 345 345 346 345 338 318 280 248 233 225 221 217 214 213 212 212 211 211 211 211 211 210 210 210 211 212 213 213 214 215 216 217 217 218 218 218 218 218 218 217 216 217 218 218 218 219 219 219 219 220 220 221 221 221 222 223 224 224 222 222 222 223 224 225 227 228 229 230 231 231 231 231 230 231 231
338 340 341 342 343 345 347 348 349 350 351 350 349 347 345 344 342 337 322 289 253 237 228 223 219 217 215 214 213 213 213 213 213 213 213 212 211 211 211 212 213 213 214 215 216 217 218 219 219 219 219 218 218 217 217 217 218 218 218 219 220 220 220 221 221 221 221 222 223 224 224 223 222 222 223 225 225 226 227 228 229 231 232 232 232 232 231 231
339 341 342 343 344 346 348 349 350 351 351 351 350 349 347 345 342 336 324 301 262 240 231 226 222 219 217 215 214 213 213 213 213 213 214 214 214 213 213 212 213 213 213 214 215 217 218 219 220 220 219 219 218 218 217 218 218 218 219 219 220 220 220 221 221 221 221 223 223 224 225 224 223 222 223 224 226 226 227 228 229 230 231 233 234 233 233 233
340 341 342 343 345 347 348 349 350 351 351 351 351 351 351 348 344 337 327 310 281 249 234 228 224 221 219 217 216 215 214 214 214 213 213 213 214 214 214 214 214 214 214 214 215 217 217 218 220 220 220 220 219 219 218 218 218 219 219 219 220 221 221 221 221 221 222 223 224 224 224 224 223 223 223 224 225 227 227 228 229 229 230 231 233 234 234 234
339 341 343 344 347 348 349 349 350 351 351 351 351 352 354 353 349 342 330 315 295 267 243 232 226 224 221 219 218 217 217 216 216 215 214 214 214 214 214 215 215 215 215 216 216 217 217 217 219 220 220 221 220 220 220 219 219 219 219 220 220 221 222 221 221 222 222 224 224 224 224 224 224 223 223 224 225 226 227 228 229 230 230 230 231 232 233 234
Height
10904 10903 10903 10903 10903 10903 10903 10904 10905 10905 10906 10907 10907 10908 10910 10911 10913 10915 10917 10919 10921 10924 10926 10927 10929 10931 10933 10935 10937 10939 10941 10943 10945 10948 10950 10953 10955 10958 10962 10965 10968 10970 10973 10977 10981 10985 10988 10991 10994 10997 11000 11003 11006 11009 11011 11013 11015 11017 11018 11021 11023 11023 11023 11023 11026 11028 11027 11028 11030 11031 11028 11027 11028 11029 11029 11029 11028 11028 11028 11028 11028 11027 11026 11025 11023 11021 11018 11015
10899 10899 10899 10899 10899 10898 10898 10899 10900 10901 10901 10902 10903 10904 10905 10906 10908 10909 10911 10913 10916 10918 10921 10922 10925 10927 10929 10931 10933 10935 10937 10939 10941 10944 10947 10949 10952 10955 10959 10961 10964 10967 10970 10974 10978 10982 10985 10988 10991 10994 10997 11000 11003 11006 11009 11011 11013 11016 11016 11019 11021 11021 11020 11021 11025 11027 11027 11028 11030 11030 11027 11026 11028 11028 11029 11029 11028 11028 11028 11027 11028 11027 11026 11025 11024 11022 11020 11017
10895 10895 10895 10895 10895 10894 10894 10894 10895 10895 10896 10897 10898 10899 10900 10901 10902 10904 10905 10907 10909 10912 10915 10917 10920 10922 10925 10927 10929 10931 10933 10935 10937 10939 10942 10945 10949 10952 10956 10958 10961 10964 10968 10971 10974 10977 10980 10983 10986 10990 10993 10996 11000 11004 11007 11009 11012 11014 11015 11016 11018 11019 11020 11020 11023 11026 11027 11028 11029 11029 11027 11027 11028 11028 11028 11028 11027 11027 11027 11027 11027 11027 11026 11025 11024 11023 11021 11019
10891 10890 10890 10889 10890 10890 10889 10889 10890 10890 10891 10892 10893 10894 10895 10896 10897 10899 10900 10901 10903 10906 10908 10912 10915 10917 10919 10922 10924 10926 10929 10931 10933 10935 10938 10941 10945 10949 10952 10954 10957 10961 10964 10966 10969 10973 10976 10979 10983 10986 10989 10993 10997 11001 11004 11006 11009 11011 11011 11013 11015 11017 11018 11019 11022 11025 11027 11027 11028 11028 11028 11028 11028 11028 11028 11027 11026 11026 11026 11026 11026 11026 11026 11025 11025 11024 11022 11020
10886 10885 10884 10884 10884 10884 10884 10884 10884 10885 10886 10887 10888 10889 10890 10891 10892 10893 10895 10896 10897 10899 10902 10905 10909 10911 10914 10916 10919 10922 10925 10927 10929 10931 10933 10936 10940 10944 10947 10950 10953 10957 10960 10963 10965 10969 10972 10976 10980 10983 10987 10990 10994 10998 11001 11003 11005 11007 11009 11010 11013 11014 11017 11019 11020 11023 11025 11027 11028 11028 11028 11029 11029 11029 11027 11025 11026 11026 11026 11026 11026 11026 11026 11025 11025 11024 11023 11021
10881 10880 10879 10879 10878 10878 10878 10878 10879 10879 10880 10881 10882 10883 10884 10885 10886 10888 10889 10890 10892 10893 10895 10898 10902 10905 10908 10911 10913 10916 10920 10922 10924 10926 10928 10931 10935 10938 10942 10946 10949 10953 10956 10959 10962 10965 10969 10972 10976 10980 10983 10988 10992 10995 10997 11000 11003 11005 11006 11007 11009 11011 11014 11017 11020 11021 11024 11026 11027 11028 11028 11029 11029 11029 11027 11025 11027 11026 11025 11025 11025 11026 11026 11025 11025 11024 11023 11022
10876 10875 10874 10874 10873 10873 10873 10873 10873 10873 10874 10875 10876 10877 10878 10878 10880 10882 10883 10885 10886 10887 10889 10891 10895 10898 10902 10905 10908 10911 10914 10917 10919 10922 10924 10927 10930 10933 10937 10941 10945 10949 10951 10955 10958 10962 10965 10968 10972 10976 10980 10984 10988 10991 10994 10997 10999 11001 11002 11003 11006 11009 11013 11016 11018 11021 11022 11024 11026 11027 11028 11029 11030 11030 11028 11026 11026 11026 11025 11025 11025 11025 11025 11025 11025 11024 11023 11023
10873 10871 10870 10870 10869 10868 10867 10867 10867 10866 10867 10868 10869 10870 10871 10872 10873 10875 10877 10879 10880 10881 10883 10885 10887 10891 10894 10898 10901 10905 10909 10911 10914 10916 10919 10922 10925 10927 10931 10935 10940 10944 10947 10951 10955 10959 10961 10965 10969 10972 10977 10981 10984 10987 10990 10993 10995 10997 10999 11001 11004 11007 11011 11014 11017 11019 11022 11023 11025 11026 11027 11030 11031 11031 11030 11026 11025 11025 11025 11025 11025 11025 11025 11025 11024 11024 11023 11023
10868 10867 10866 10865 10864 10863 10862 10861 10861 10861 10860 10861 10862 10863 10864 10865 10866 10868 10870 10872 10873 10875 10877 10878 10881 10883 10887 10891 10895 10900 10902 10904 10908 10911 10914 10917 10919 10922 10926 10930 10934 10939 10943 10947 10951 10955 10957 10961 10964 10969 10973 10976 10979 10982 10985 10988 10991 10993 10995 10998 11002 11005 11009 11013 11016 11018 11021 11022 11024 11025 11027 11029 11030 11031 11031 11026 11024 11025 11025 11024 11024 11024 11024 11024 11024 11024 11023 11023
10864 10863 10861 10860 10859 10857 10856 10855 10855 10854 10854 10855 10856 10856 10857 10857 10858 10860 10862 10865 10866 10868 10870 10872 10874 10876 10879 10883 10888 10893 10896 10898 10903 10905 10908 10911 10914 10917 10920 10924 10928 10933 10937 10942 10946 10950 10953 10957 10961 10965 10967 10969 10972 10976 10979 10982 10986 10989 10992 10996 10999 11003 11007 11010 11014 11017 11019 11021 11023 11025 11027 11027 11027 11029 11029 11025 11023 11024 11024 11024 11023 11023 11023 11023 11023 11024 11023 11023
10859 10858 10856 10854 10852 10851 10850 10849 10848 10847 10848 10849 10849 10850 10850 10850 10850 10851 10854 10857 10859 10861 10863 10865 10867 10869 10872 10875 10881 10885 10888 10892 10895 10898 10901 10904 10908 10911 10914 10918 10923 10927 10932 10936 10941 10946 10949 10953 10956 10959 10961 10964 10967 10971 10973 10976 10981 10985 10989 10992 10996 11000 11004 11008 11012 11015 11017 11019 11022 11024 11024 11024 11024 11025 11025 11022 11022 11023 11023 11023 11022 11022 11022 11023 11023 11023 11023 11022
10854 10852 10850 10848 10846 10845 10843 10842 10840 10840 10840 10841 10842 10842 10842 10842 10842 10843 10845 10847 10850 10853 10855 10857 10860 10862 10865 10869 10873 10875 10880 10885 10888 10891 10895 10898 10902 10906 10909 10913 10916 10922 10926 10930 10935 10940 10944 10948 10950 10953 10957 10959 10961 10965 10968 10972 10977 10982 10985 10989 10993 10997 11001 11005 11009 11012 11015 11016 11018 11020 11021 11022 11022 11021 11020 11020 11021 11021 11021 11021 11021 11022 11022 11022 11023 11023 11023 11022
10848 10845 10843 10841 10840 10838 10835 10834 10832 10831 10832 10833 10833 10833 10833 10834 10835 10835 10836 10838 10841 10844 10847 10849 10852 10854 10858 10863 10865 10867 10872 10877 10880 10885 10888 10891 10895 10899 10903 10907 10911 10916 10920 10925 10929 10933 10938 10940 10943 10948 10950 10951 10957 10962 10963 10967 10973 10977 10981 10985 10990 10994 10998 11002 11005 11009 11012 11012 11014 11017 11018 11020 11019 11018 11018 11018 11019 11019 11019 11020 11020 11021 11021 11022 11022 11023 11023 11022
10841 10839 10836 10834 10832 10829 10827 10825 10823 10823 10822 10822 10823 10823 10823 10824 10826 10827 10828 10830 10832 10835 10838 10841 10844 10847 10851 10854 10856 10860 10864 10867 10872 10877 10881 10884 10888 10892 10897 10901 10905 10909 10914 10919 10922 10926 10930 10933 10938 10941 10942 10948 10954 10954 10955 10962 10968 10973 10978 10983 10987 10991 10994 10998 11001 11005 11007 11009 11011 11013 11015 11016 11014 11015 11017 11017 11017 11017 11017 11018 11019 11020 11021 11021 11022 11022 11022 11022
10833 10831 10828 10826 10823 10820 10817 10815 10813 10813 10812 10811 10811 10812 10813 10814 10815 10817 10819 10822 10823 10825 10828 10832 10835 10839 10843 10846 10849 10853 10856 10859 10864 10868 10873 10878 10881 10885 10890 10895 10899 10903 10907 10911 10915 10919 10922 10927 10932 10934 10938 10945 10945 10945 10952 10960 10964 10970 10975 10979 10984 10987 10989 10993 10997 11000 11002 11004 11007 11009 11011 11013 11011 11013 11015 11015 11016 11016 11016 11016 11017 11019 11020 11020 11021 11022 11022 11022
10825 10822 10819 10817 10813 10810 10807 10804 10802 10801 10801 10800 10799 10800 10801 10803 10805 10807 10809 10812 10814 10816 10819 10822 10826 10830 10835 10839 10841 10844 10847 10852 10855 10859 10865 10870 10874 10878 10882 10887 10892 10896 10900 10904 10908 10911 10916 10921 10925 10929 10935 10938 10937 10942 10951 10957 10962 10967 10971 10975 10978 10980 10983 10988 10992 10996 10998 11000 11005 11006 11007 11009 11010 11012 11014 11014 11016 11017 11015 11016 11017 11018 11019 11020 11020 11021 11022 11021
10816 10813 10810 10806 10803 10799 10796 10793 10791 10790 10789 10787 10787 10788 10789 10791 10793 10795 10798 10802 10804 10806 10809 10812 10816 10821 10826 10828 10831 10836 10840 10843 10847 10851 10857 10862 10867 10871 10874 10879 10884 10889 10893 10897 10901 10905 10910 10914 10919 10924 10929 10930 10932 10940 10948 10953 10959 10963 10966 10969 10972 10975 10978 10983 10987 10992 10994 10997 11001 11003 11004 11007 11009 11011 11013 11014 11017 11017 11015 11016 11017 11017 11018 11019 11020 11020 11021 11021
10806 10803 10799 10796 10792 10788 10785 10782 10780 10778 10776 10775 10775 10775 10777 10779 10781 10784 10787 10790 10793 10796 10799 10803 10806 10811 10816 10820 10824 10829 10831 10834 10839 10843 10848 10853 10858 10862 10867 10872 10877 10881 10886 10890 10894 10899 10903 10908 10913 10917 10921 10925 10930 10938 10944 10948 10952 10955 10959 10963 10966 10969 10973 10978 10983 10987 10990 10993 10997 10999 11002 11005 11006 11008 11011 11015 11018 11015 11013 11016 11018 11017 11017 11018 11019 11020 11021 11021
10797 10793 10789 10785 10781 10777 10774 10771 10769 10767 10765 10764 10763 10764 10765 10767 10770 10773 10776 10780 10782 10785 10790 10793 10795 10800 10807 10811 10815 10818 10820 10825 10831 10835 10840 10845 10850 10854 10860 10864 10868 10873 10878 10883 10888 10893 10897 10902 10907 10912 10917 10921 10925 10931 10935 10940 10945 10950 10954 10958 10961 10964 10968 10973 10978 10982 10986 10990 10993 10996 10999 11001 11002 11006 11010 11014 11017 11015 11012 11015 11018 11017 11017 11018 11018 11019 11020 11021
10787 10783 10779 10775 10770 10767 10764 10761 10758 10757 10755 10754 10753 10754 10755 10757 10759 10762 10765 10769 10772 10776 10779 10781 10785 10792 10797 10800 10803 10807 10811 10817 10823 10827 10831 10836 10840 10846 10851 10856 10861 10866 10871 10876 10881 10886 10891 10896 10902 10907 10910 10912 10917 10921 10926 10934 10942 10946 10950 10953 10956 10959 10963 10968 10973 10978 10983 10986 10990 10993 10995 10997 11000 11005 11008 11011 11013 11013 11013 11015 11016 11016 11017 11017 11018 11019 11019 11020
10777 10773 10769 10765 10760 10757 10754 10751 10749 10748 10747 10746 10745 10745 10746 10748 10749 10752 10755 10759 10762 10766 10768 10771 10776 10782 10786 10789 10792 10796 10802 10809 10813 10818 10822 10826 10831 10836 10841 10847 10853 10858 10863 10869 10875 10879 10885 10891 10895 10899 10901 10905 10911 10914 10922 10933 10938 10940 10943 10947 10951 10954 10959 10964 10968 10974 10978 10981 10984 10988 10991 10994 10997 11001 11003 11003 11006 11009 11012 11015 11016 11015 11016 11018 11017 11017 11018 11019
10768 10764 10760 10756 10752 10748 10746 10743 10742 10740 10739 10738 10738 10738 10738 10739 10741 10743 10745 10748 10752 10755 10758 10762 10766 10771 10775 10777 10780 10787 10793 10798 10804 10809 10813 10816 10821 10827 10832 10839 10845 10850 10856 10863 10868 10873 10879 10884 10887 10890 10895 10901 10906 10911 10922 10930 10929 10930 10935 10940 10945 10948 10954 10960 10964 10970 10973 10976 10979 10983 10987 10990 10992 10995 10996 10997 10999 11004 11008 11012 11015 11016 11016 11018 11017 11016 11017 11017
10760 10756 10752 10748 10744 10740 10738 10736 10734 10733 10733 10732 10731 10731 10731 10732 10734 10735 10736 10739 10743 10745 10749 10752 10756 10761 10764 10766 10772 10778 10781 10787 10794 10798 10802 10807 10813 10819 10825 10830 10836 10842 10850 10856 10861 10865 10870 10874 10877 10883 10890 10897 10901 10908 10917 10918 10917 10922 10928 10934 10938 10942 10950 10954 10957 10964 10967 10970 10975 10979 10982 10984 10987 10990 10991 10992 10995 11000 11005 11009 11014 11016 11017 11018 11017 11015 11014 11015
10752 10748 10744 10741 10737 10733 10731 10729 10728 10727 10726 10726 10725 10725 10725 10726 10727 10727 10728 10731 10733 10736 10739 10742 10746 10750 10753 10757 10762 10764 10768 10777 10783 10788 10793 10798 10805 10812 10816 10821 10827 10834 10842 10848 10852 10856 10861 10865 10869 10877 10885 10891 10895 10902 10907 10907 10910 10918 10923 10928 10933 10939 10944 10946 10953 10960 10963 10967 10970 10973 10977 10979 10982 10985 10987 10990 10994 10999 11003 11007 11011 11013 11015 11016 11016 11013 11011 11012
10744 10740 10736 10733 10730 10727 10725 10723 10722 10720 10720 10720 10719 10719 10719 10720 10721 10721 10721 10722 10724 10727 10729 10733 10736 10739 10743 10747 10748 10752 10761 10768 10772 10779 10783 10788 10797 10802 10806 10812 10818 10825 10833 10839 10842 10846 10851 10856 10865 10875 10881 10884 10888 10895 10900 10902 10906 10912 10917 10923 10928 10933 10937 10943 10951 10955 10957 10961 10964 10968 10972 10973 10976 10980 10983 10987 10992 10996 11000 11003 11007 11010 11012 11013 11013 11010 11006 11008
10737 10732 10729 10726 10723 10720 10718 10717 10715 10714 10714 10713 10712 10713 10712 10713 10713 10713 10713 10713 10715 10718 10720 10724 10726 10729 10732 10734 10739 10747 10752 10756 10762 10768 10771 10778 10788 10792 10797 10804 10809 10816 10824 10829 10833 10838 10843 10853 10864 10870 10872 10876 10882 10889 10894 10896 10900 10905 10910 10915 10919 10925 10933 10941 10945 10946 10950 10953 10956 10962 10965 10967 10972 10976 10979 10983 10989 10992 10995 10999 11003 11006 11009 11011 11012 11006 11002 11006
10729 10725 10722 10719 10716 10713 10711 10710 10708 10707 10707 10706 10706 10705 10705 10706 10704 10704 10704 10701 10705 10710 10711 10713 10716 10718 10721 10726 10733 10734 10734 10744 10754 10755 10760 10769 10777 10782 10787 10793 10798 10807 10815 10820 10827 10832 10839 10850 10858 10859 10862 10869 10877 10883 10887 10890 10893 10896 10903 10909 10914 10922 10930 10933 10934 10938 10942 10945 10951 10957 10959 10963 10969 10973 10977 10981 10985 10988 10990 10995 10998 11001 11005 11009 11009 11003 11001 11005
10721 10718 10714 10711 10708 10706 10704 10702 10701 10700 10699 10698 10697 10696 10696 10696 10694 10695 10692 10688 10694 10700 10698 10701 10705 10707 10712 10717 10719 10717 10726 10740 10743 10744 10752 10760 10766 10771 10776 10783 10791 10799 10806 10812 10817 10823 10833 10844 10847 10848 10855 10864 10870 10875 10879 10883 10886 10891 10900 10906 10910 10918 10922 10922 10926 10930 10934 10939 10946 10950 10953 10959 10965 10969 10973 10977 10980 10984 10986 10989 10992 10995 11000 11004 11006 11002 11001 11005
10714 10711 10707 10704 10701 10699 10697 10695 10694 10692 10691 10690 10688 10687 10686 10684 10683 10682 10678 10675 10682 10686 10686 10690 10692 10696 10702 10705 10706 10711 10724 10730 10729 10738 10745 10749 10756 10761 10768 10779 10785 10792 10800 10802 10803 10811 10823 10831 10833 10838 10848 10855 10862 10868 10874 10878 10879 10886 10896 10900 10904 10912 10913 10915 10920 10923 10929 10936 10940 10943 10948 10954 10958 10963 10968 10970 10974 10978 10981 10984 10987 10991 10996 10999 11002 11002 11001 11004
10707 10704 10700 10697 10694 10692 10690 10688 10686 10685 10683 10681 10679 10677 10674 10672 10670 10667 10664 10665 10669 10672 10674 10677 10680 10685 10690 10693 10697 10705 10712 10715 10722 10732 10734 10737 10745 10751 10760 10769 10774 10784 10791 10788 10791 10804 10816 10823 10826 10833 10841 10848 10855 10861 10867 10869 10871 10883 10892 10894 10899 10905 10903 10907 10913 10915 10924 10931 10932 10936 10941 10946 10952 10958 10962 10964 10967 10971 10975 10979 10983 10987 10991 10995 10997 10999 11000 11002
10700 10697 10694 10690 10687 10685 10683 10681 10679 10677 10675 10672 10668 10665 10661 10659 10656 10652 10651 10654 10656 10657 10661 10664 10668 10673 10676 10680 10686 10693 10699 10706 10716 10721 10721 10727 10734 10739 10750 10757 10763 10775 10777 10774 10786 10803 10814 10818 10821 10828 10837 10844 10848 10854 10859 10861 10869 10882 10886 10886 10892 10895 10895 10902 10905 10910 10921 10925 10924 10931 10935 10938 10945 10951 10956 10958 10961 10966 10971 10974 10978 10982 10987 10991 10993 10995 10997 10998
10693 10690 10687 10684 10681 10678 10676 10674 10672 10669 10666 10662 10657 10653 10648 10645 10642 10639 10639 10641 10642 10644 10647 10650 10654 10659 10663 10670 10676 10682 10689 10696 10702 10705 10710 10717 10722 10729 10739 10744 10752 10762 10762 10765 10780 10795 10800 10801 10807 10820 10829 10834 10839 10848 10855 10857 10867 10877 10875 10876 10884 10888 10892 10898 10900 10908 10918 10917 10917 10924 10926 10929 10939 10947 10950 10953 10956 10960 10964 10968 10973 10977 10981 10986 10990 10992 10993 10995
10687 10683 10680 10677 10674 10672 10669 10667 10664 10660 10656 10651 10645 10640 10636 10632 10628 10627 10627 10628 10630 10632 10634 10637 10643 10647 10653 10659 10665 10671 10678 10683 10688 10693 10700 10706 10713 10722 10731 10737 10746 10753 10754 10761 10773 10783 10784 10788 10801 10813 10817 10823 10832 10840 10842 10845 10857 10865 10864 10869 10878 10883 10889 10893 10896 10905 10911 10908 10909 10915 10918 10924 10935 10940 10942 10946 10950 10954 10958 10962 10967 10971 10976 10981 10985 10988 10989 10990
10680 10677 10674 10671 10668 10666 10663 10660 10656 10652 10646 10640 10634 10628 10624 10620 10617 10616 10616 10617 10620 10621 10623 10628 10633 10638 10643 10649 10654 10659 10665 10671 10677 10684 10691 10698 10705 10712 10719 10727 10735 10741 10745 10753 10764 10772 10773 10780 10793 10801 10806 10816 10823 10826 10830 10839 10852 10857 10856 10863 10871 10876 10882 10886 10891 10899 10901 10899 10901 10906 10913 10922 10928 10931 10935 10939 10943 10948 10952 10957 10962 10966 10971 10975 10980 10983 10984 10985
10674 10670 10667 10664 10662 10659 10656 10652 10648 10643 10636 10630 10624 10618 10614 10610 10608 10607 10607 10609 10610 10611 10614 10619 10623 10628 10635 10639 10643 10648 10654 10661 10667 10674 10680 10685 10689 10695 10703 10713 10720 10727 10735 10742 10752 10760 10763 10769 10782 10791 10800 10810 10813 10817 10827 10838 10847 10848 10850 10857 10863 10868 10874 10878 10885 10890 10890 10890 10893 10901 10911 10917 10920 10924 10929 10931 10936 10942 10946 10951 10956 10960 10964 10969 10973 10976 10979 10981
10668 10664 10661 10658 10656 10653 10649 10645 10640 10634 10627 10621 10615 10609 10605 10602 10600 10599 10600 10601 10602 10603 10607 10610 10614 10619 10623 10627 10631 10638 10645 10652 10658 10664 10669 10673 10679 10688 10699 10707 10713 10720 10726 10733 10741 10746 10748 10759 10775 10784 10792 10799 10804 10812 10822 10828 10831 10836 10843 10850 10853 10859 10865 10871 10878 10881 10881 10883 10889 10898 10908 10912 10913 10916 10920 10924 10931 10936 10940 10945 10950 10954 10958 10963 10966 10970 10974 10977
10662 10659 10656 10653 10650 10647 10643 10638 10633 10627 10620 10613 10607 10602 10598 10596 10594 10593 10593 10594 10595 10597 10599 10601 10604 10609 10613 10617 10624 10631 10637 10642 10648 10655 10660 10664 10672 10682 10690 10695 10702 10709 10715 10724 10732 10734 10739 10754 10768 10773 10782 10790 10795 10803 10811 10815 10819 10827 10833 10836 10842 10852 10862 10869 10874 10876 10878 10882 10887 10896 10904 10905 10904 10907 10912 10919 10925 10930 10935 10939 10944 10948 10952 10956 10960 10964 10968 10971
10658 10654 10651 10648 10645 10642 10637 10632 10626 10620 10613 10607 10602 10597 10593 10590 10589 10587 10587 10588 10589 10590 10592 10594 10598 10602 10606 10610 10616 10623 10628 10634 10641 10646 10650 10656 10665 10673 10678 10684 10692 10698 10705 10713 10719 10723 10734 10749 10757 10763 10774 10781 10785 10794 10801 10804 10810 10819 10825 10831 10841 10851 10858 10863 10867 10871 10876 10879 10883 10893 10897 10894 10895 10901 10908 10914 10920 10925 10929 10932 10937 10942 10946 10950 10954 10957 10961 10965
10653 10650 10647 10644 10641 10637 10632 10627 10621 10614 10607 10601 10596 10592 10588 10585 10584 10583 10583 10583 10584 10585 10587 10590 10594 10596 10599 10603 10608 10615 10620 10625 10631 10635 10640 10648 10656 10663 10669 10677 10684 10690 10697 10704 10709 10717 10730 10741 10746 10753 10763 10769 10775 10784 10789 10791 10799 10810 10818 10826 10836 10842 10848 10853 10857 10862 10868 10869 10875 10886 10886 10884 10890 10899 10905 10910 10915 10918 10921 10925 10931 10936 10940 10944 10947 10951 10955 10959
10650 10647 10644 10640 10636 10632 10628 10622 10617 10611 10605 10598 10592 10588 10584 10582 10580 10579 10579 10579 10580 10582 10584 10586 10589 10591 10595 10599 10604 10609 10613 10618 10623 10626 10631 10639 10646 10653 10661 10669 10675 10682 10690 10697 10704 10712 10723 10731 10736 10745 10755 10760 10762 10768 10773 10779 10790 10803 10810 10815 10823 10832 10838 10845 10849 10854 10858 10859 10866 10874 10873 10876 10887 10896 10900 10903 10906 10909 10914 10919 10924 10929 10933 10937 10941 10945 10949 10952
10646 10643 10640 10637 10632 10628 10623 10618 10612 10607 10602 10595 10589 10585 10581 10579 10577 10576 10576 10576 10577 10579 10580 10582 10585 10588 10591 10595 10600 10604 10607 10612 10617 10620 10626 10634 10641 10647 10655 10661 10668 10676 10681 10688 10695 10702 10711 10720 10726 10736 10742 10742 10747 10758 10770 10779 10791 10801 10804 10807 10815 10821 10826 10835 10843 10848 10851 10853 10857 10862 10865 10872 10882 10889 10893 10895 10898 10903 10907 10912 10917 10922 10927 10931 10934 10938 10942 10947
10643 10640 10637 10633 10629 10624 10619 10613 10608 10602 10597 10592 10587 10582 10579 10576 10574 10573 10573 10574 10575 10576 10577 10579 10581 10584 10588 10591 10596 10600 10603 10608 10612 10616 10622 10630 10636 10642 10648 10655 10661 10668 10673 10680 10687 10695 10704 10712 10717 10722 10724 10728 10743 10759 10767 10774 10783 10791 10793 10799 10809 10815 10820 10829 10833 10834 10839 10845 10852 10858 10862 10871 10879 10884 10887 10888 10892 10898 10901 10906 10911 10915 10920 10924 10928 10932 10936 10940
10640 10638 10635 10631 10626 10621 10616 10610 10604 10598 10593 10589 10584 10580 10577 10574 10572 10571 10571 10571 10572 10574 10575 10577 10578 10581 10584 10588 10592 10596 10599 10603 10607 10611 10616 10623 10629 10636 10643 10649 10655 10661 10667 10674 10683 10691 10697 10701 10707 10712 10718 10731 10746 10751 10755 10763 10772 10777 10781 10790 10800 10807 10814 10821 10824 10828 10834 10840 10846 10850 10856 10867 10874 10878 10881 10882 10885 10890 10894 10899 10904 10908 10913 10918 10922 10926 10930 10934
10638 10635 10632 10628 10624 10619 10613 10608 10601 10595 10590 10586 10582 10579 10575 10572 10571 10569 10569 10569 10570 10571 10573 10575 10576 10578 10580 10583 10587 10591 10594 10599 10603 10607 10613 10619 10624 10631 10637 10644 10650 10657 10663 10670 10678 10684 10687 10692 10701 10709 10717 10729 10736 10738 10745 10755 10760 10763 10772 10785 10795 10800 10806 10814 10820 10826 10832 10836 10839 10840 10847 10858 10863 10866 10871 10874 10878 10883 10888 10893 10898 10902 10906 10910 10915 10919 10923 10928
10636 10633 10629 10626 10622 10617 10612 10606 10600 10593 10587 10583 10580 10577 10574 10571 10569 10568 10567 10567 10568 10569 10571 10573 10575 10576 10578 10580 10582 10586 10590 10594 10598 10603 10609 10614 10620 10626 10632 10639 10645 10651 10658 10664 10669 10674 10679 10687 10696 10702 10707 10714 10719 10724 10733 10741 10746 10753 10766 10780 10787 10792 10799 10805 10810 10816 10821 10826 10829 10830 10839 10850 10855 10858 10864 10867 10871 10877 10881 10886 10891 10895 10900 10904 10908 10912 10916 10921
10633 10630 10627 10623 10619 10615 10610 10604 10598 10592 10586 10581 10577 10575 10573 10571 10568 10567 10566 10566 10566 10567 10569 10570 10572 10574 10576 10578 10580 10583 10586 10589 10593 10598 10604 10610 10616 10622 10627 10633 10639 10645 10651 10656 10662 10668 10674 10681 10688 10692 10696 10703 10711 10717 10725 10733 10740 10749 10761 10771 10776 10782 10789 10794 10800 10807 10813 10817 10819 10821 10832 10846 10851 10854 10859 10862 10866 10870 10874 10879 10883 10888 10893 10897 10901 10906 10910 10915
10632 10629 10625 10621 10617 10613 10608 10602 10597 10591 10586 10580 10576 10573 10571 10569 10567 10566 10565 10564 10565 10565 10567 10568 10570 10572 10574 10576 10579 10581 10583 10586 10589 10594 10599 10604 10610 10615 10621 10627 10633 10639 10644 10649 10655 10662 10667 10673 10678 10683 10689 10698 10708 10716 10723 10729 10737 10747 10758 10763 10768 10775 10779 10783 10791 10799 10804 10810 10812 10816 10827 10839 10843 10845 10849 10854 10858 10862 10866 10872 10876 10880 10885 10890 10895 10899 10903 10908
10630 10627 10623 10620 10616 10611 10606 10601 10595 10590 10585 10580 10576 10572 10569 10567 10566 10565 10564 10563 10563 10563 10565 10566 10568 10570 10571 10573 10576 10579 10582 10584 10588 10592 10596 10600 10604 10609 10614 10620 10625 10631 10637 10642 10649 10654 10658 10664 10670 10677 10684 10692 10701 10710 10716 10722 10731 10741 10746 10750 10757 10764 10767 10773 10782 10791 10798 10803 10805 10809 10818 10827 10832 10835 10840 10845 10849 10854 10858 10863 10868 10872 10877 10882 10887 10892 10896 10901
10627 10625 10621 10618 10614 10609 10605 10599 10594 10588 10583 10579 10575 10572 10568 10566 10564 10563 10563 10562 10561 10561 10562 10564 10565 10567 10569 10571 10574 10576 10579 10583 10586 10590 10593 10597 10601 10604 10609 10614 10619 10625 10630 10636 10642 10646 10650 10657 10664 10670 10677 10685 10693 10700 10706 10712 10720 10727 10732 10738 10746 10752 10757 10765 10774 10783 10789 10792 10795 10799 10806 10814 10823 10830 10834 10837 10841 10845 10850 10854 10860 10865 10870 10875 10880 10884 10889 10893
10625 10622 10619 10616 10612 10607 10603 10598 10592 10587 10582 10578 10575 10571 10568 10565 10563 10562 10561 10561 10560 10560 10560 10561 10563 10564 10566 10569 10571 10573 10576 10579 10582 10585 10589 10593 10597 10601 10606 10610 10614 10619 10624 10629 10634 10638 10643 10651 10657 10661 10668 10675 10682 10689 10695 10702 10708 10714 10721 10728 10733 10739 10748 10756 10763 10772 10778 10779 10782 10789 10795 10805 10818 10824 10825 10827 10831 10837 10842 10847 10853 10858 10863 10868 10872 10877 10881 10885
10623 10620 10617 10614 10610 10605 10600 10595 10590 10586 10581 10577 10574 10571 10568 10565 10562 10560 10559 10559 10559 10558 10558 10559 10560 10561 10563 10566 10568 10570 10572 10574 10577 10580 10584 10588 10592 10597 10602 10606 10609 10614 10619 10624 10629 10632 10638 10645 10649 10653 10660 10666 10672 10678 10684 10691 10696 10703 10710 10716 10722 10729 10736 10743 10751 10761 10766 10765 10771 10780 10787 10795 10807 10812 10814 10818 10824 10829 10835 10840 10845 10850 10855 10860 10864 10869 10874 10878
10621 10619 10615 10612 10608 10603 10599 10594 10589 10584 10580 10576 10573 10570 10567 10564 10562 10559 10558 10557 10557 10557 10557 10557 10557 10559 10560 10562 10564 10566 10568 10571 10573 10576 10580 10583 10587 10591 10596 10600 10604 10610 10614 10619 10622 10625 10632 10639 10641 10644 10650 10656 10662 10668 10674 10681 10686 10691 10698 10705 10711 10717 10725 10735 10745 10752 10755 10755 10760 10768 10774 10784 10795 10800 10803 10810 10817 10823 10828 10833 10837 10842 10846 10851 10855 10860 10865 10869